sat.trackr.live / text

‹ back to catalog

DUCHIFAT-1

NORAD 40021 · 2014-033M

PAYLOAD ACTIVE UNKNOWN

§ Identity

Operator
Country
ISRA
Launch date
2014-06-19
Launch site
DLS
Launch vehicle
Mass (kg)
RCS (m²)
0.04

Purposes: comms, tech_demo

External: N2YO · Heavens-Above · Gunter

§ Orbital elements

Epoch: 2026-09-16T20:44:11.096448Z

Period
88.36 min
Inclination
98.0058°
Eccentricity
0.0011785
Mean motion
16.29776824 rev/d
Perigee alt
185.4 km
Apogee alt
200.9 km
Semi-major
6,571.3 km
B*
1.2995e-3
RAAN
334.1636°
Arg perigee
272.4633°
Mean anomaly
87.5310°
Rev number
67,022

§ Raw data

DUCHIFAT-11 40021U 14033M   26259.86401732  .05638238  28638-5  12995-2 0  99982 40021  98.0058 334.1636 0011785 272.4633  87.5310 16.29776824670227

JSON: /api/v1/satellites/40021 · /tle

For live sub-satellite position, see the globe view (requires WebGL).

§ Visibility from observer

Set your observer location to see the next 7 days of passes ≥ 10°. The values pass through the URL so the page stays shareable.

No JS? Fill the form by hand. The geolocation button needs JavaScript.

§ Radio — SatNOGS DB

ModeDescriptionDownlinkUplink
BPSK BPSK TLM 1k2 callsign 4X4HSL 145.980 MHz
CW CW TLM beacon callsign 4X4HSL 145.980 MHz
BPSK PE0SAT - 1k2 BPSK TLM 145.981 MHz

3 transmitters · refreshed weekly from db.satnogs.org